This demonstration page uses our WeatherBlox Daily Observations layout. Learn more.

Left ArrowRight Arrow

Hourly Observations for May 4, 2016

Temp ( °F °C ) Dew Point ( °F °C ) Humidity (%) Winds ( mph kmh ) Pressure ( in mb ) Visibility ( mi km ) Precip ( " mm )
12:53 am 00:53 Clear 49 9.4 47 8.3 93 93 N N/A 29.84 1011 10 16 N/A
1:53 am 01:53 Clear 46 7.8 45 7.2 96 96 N N/A 29.83 1010 8 13 N/A
2:53 am 02:53 Clear 45 7.2 44 6.7 97 97 N N/A 29.80 1009 8 13 N/A
3:53 am 03:53 Clear 45 7.2 44 6.7 97 97 N N/A 29.78 1008 10 16 N/A
4:53 am 04:53 Clear 45 7.2 44 6.7 97 97 N N/A 29.75 1008 10 16 N/A
5:53 am 05:53 Mostly Cloudy 46 7.8 45 7.2 96 96 N N/A 29.74 1007 10 16 N/A
6:53 am 06:53 Mostly Cloudy 48 8.9 46 7.8 93 93 N N/A 29.73 1007 10 16 N/A
7:53 am 07:53 Cloudy 51 10.6 48 8.9 89 89 N N/A 29.72 1007 10 16 N/A
8:53 am 08:53 Sunny 55 12.8 47 8.3 74 74 VRB 7 11 29.70 1006 10 16 N/A
9:53 am 09:53 Cloudy 57 13.9 46 7.8 67 67 WSW 10 17 29.70 1006 10 16 N/A
10:53 am 10:53 Cloudy 55 12.8 46 7.8 72 72 WSW 9 15 29.70 1006 10 16 N/A
11:53 am 11:53 Cloudy with Light Rain 53 11.7 48 8.9 83 83 WSW 7 11 29.70 1006 5 8 0.02 0.51
12:15 pm 12:15 Cloudy with Rain 52 11.1 49 9.4 89 89 WSW 7 11 29.71 1006 3 4 0.04 1.02
12:24 pm 12:24 Cloudy with Light Rain 52 11.1 49 9.4 89 89 WSW 8 13 29.71 1006 4 6 0.04 1.02
12:53 pm 12:53 Cloudy 52 11.1 49 9.4 89 89 SW 7 11 29.70 1006 10 16 0.06 1.52
1:53 pm 13:53 Cloudy 57 13.9 51 10.6 81 81 SSW 9 15 29.67 1005 10 16 N/A
2:01 pm 14:01 Cloudy 57 13.9 50 10 78 78 WSW 8 13 29.68 1005 10 16 N/A
2:17 pm 14:17 Cloudy with Light Rain 52 11.1 46 7.8 80 80 WNW 9 15 29.68 1005 5 8 0.03 0.76
2:53 pm 14:53 Cloudy 52 11.1 48 8.9 86 86 SSW 6 9 29.68 1005 10 16 0.03 0.76
3:44 pm 15:44 Cloudy 54 12.2 48 8.9 80 80 N N/A 29.65 1004 10 16 N/A
3:53 pm 15:53 Cloudy 55 12.8 49 9.4 80 80 N N/A 29.67 1005 10 16 N/A
4:02 pm 16:02 Cloudy 56 13.3 50 10 81 81 VRB 7 11 29.68 1005 10 16 N/A
4:53 pm 16:53 Mostly Cloudy 60 15.6 43 6.1 53 53 NW 15 24 29.67 1005 10 16 N/A
5:53 pm 17:53 Mostly Sunny 55 12.8 40 4.4 57 57 NW 17 28 29.71 1006 10 16 N/A
6:53 pm 18:53 Partly Cloudy 54 12.2 37 2.8 53 53 NW 20 31 29.72 1007 10 16 N/A
7:53 pm 19:53 Cloudy 52 11.1 38 3.3 59 59 NNW 16 26 29.75 1007 10 16 N/A
8:53 pm 20:53 Cloudy 50 10 37 2.8 61 61 NW 12 19 29.76 1008 10 16 N/A
9:53 pm 21:53 Mostly Clear 48 8.9 36 2.2 63 63 NW 10 17 29.77 1008 10 16 N/A
10:53 pm 22:53 Mostly Cloudy 48 8.9 35 1.7 61 61 NW 14 22 29.78 1008 10 16 N/A
11:53 pm 23:53 Cloudy 47 8.3 36 2.2 66 66 W 7 11 29.77 1008 10 16 N/A

Powered by AerisWeather